Regional Weather Roundup
Issued by NWS

Home | Current Version | Previous Version | Graphics & Text | Print | Product List | Glossary On
Versions: 1 2 3 4 5 6 7 8 9 10 11 12 13 14 15 16 17 18 19 20 21 22 23 24 25 26 27
000
ASUS45 KSLC 140210
RWRUT

UTAH REGIONAL WEATHER ROUNDUP
NATIONAL WEATHER SERVICE SALT LAKE CITY UT
700 PM MST WED DEC 13 2017

UTZ001>011-023>025-140300-

NORTHERN UTAH

CITY           SKY/WX    TMP DP  RH WIND       PRES   REMARKS
BRIGHAM CITY   CLOUDY    26  24  91 N5        30.27S WCI  21
HILL AFB       CLEAR     25  24  95 N10       30.22R FOG     WCI  15
LOGAN          CLOUDY    27  22  81 NW5       30.26S WCI  22
OGDEN          CLOUDY    27  25  92 N7        30.23S FOG     WCI  19
SALT LAKE CITY CLOUDY    29  27  92 N10       30.24R FOG     WCI  20
TOOELE VALLEY  CLOUDY    28  27  93 NW5       30.25R FOG     WCI  23
WENDOVER       PTCLDY    16  12  84 NE6       30.26R WCI   7
HEBER CITY     CLOUDY    34  27  75 NW3       30.14F
WEST JORDAN    CLOUDY    27  26  94 NW9       30.22R WCI  18

$$

UTZ011>015-024>027-140300-

CENTRAL/NORTHEAST UTAH

CITY           SKY/WX    TMP DP  RH WIND       PRES   REMARKS
PROVO AIRPORT  CLOUDY    30  25  81 CALM      30.19F FOG
MOAB/CANYONLAN CLOUDY    38   6  26 CALM      30.02S
DELTA          CLOUDY    32  16  51 N6        30.17S WCI  26
PRICE          CLOUDY    42  26  53 NW12      30.07R
RICHFIELD      PTCLDY    39   9  28 NW10      30.15S WCI  32
ROOSEVELT      CLOUDY    32  10  40 NE5       30.10R WCI  27
VERNAL         CLOUDY    32  13  45 SE3       30.07S

$$

UTZ013>016-019>022-027-140300-

SOUTHERN UTAH

CITY           SKY/WX    TMP DP  RH WIND       PRES   REMARKS
BRYCE CANYON     N/A    N/A N/A N/A MISG      30.11F
CEDAR CITY     PTCLDY    31   9  39 SE3       30.09F
MILFORD        MOCLDY    36  16  44 N15       30.14R WCI  27
ST GEORGE      PTCLDY    45   7  21 S6        30.02R
HANKSVILLE     CLOUDY    37   5  25 CALM      30.06R
KANAB          CLEAR     37   7  28 N1        30.07R
BLANDING         N/A     33   2  27 CALM      30.10S

$$

REGIONAL REPORTS     COLORADO/ARIZONA

CITY           SKY/WX    TMP DP  RH WIND       PRES   REMARKS
CRAIG, CO      CLOUDY    31  25  78 VRB6      30.07R WCI  25
GRAND JUNCTION CLOUDY    37  15  40 NE3       30.03S
RIFLE, CO      CLOUDY    35  15  44 E5        30.04S WCI  31
MONTROSE, CO   CLOUDY    39  12  33 CALM      30.04S
CORTEZ, CO     CLOUDY    28   4  35 E8        30.04F WCI  20
COLORADO CITY    N/A     37   3  23 NW3       30.06S
PAGE, AZ       PTCLDY    42  14  32 CALM      30.01S
GRAND CANYON   PTCLDY    28   3  34 NE6       30.09F WCI  22
KINGMAN, AZ    CLEAR     46   9  22 SE15      30.00F
FLAGSTAFF, AZ  CLEAR     30   5  34 CALM      30.10F

$$

REGIONAL REPORTS    NEVADA/IDAHO/WYOMING

CITY           SKY/WX    TMP DP  RH WIND       PRES   REMARKS
LAS VEGAS, NV  MOCLDY    62  12  14 CALM      29.96S
ELY, NY        PTCLDY    38   7  27 N12       30.17R WCI  30
ELKO, NV       CLEAR     28  20  71 NW3       30.24R
POCATELLO, ID  CLOUDY    25  22  88 SW7       30.32R WCI  17
BURLEY, ID     CLOUDY    24  20  84 W5        30.32R WCI  18
FORT BRIDGER,  CLOUDY    32  29  89 W14       30.16S WCI  22
EVANSTON, WY   CLOUDY    29  26  89 SW7       30.15S WCI  22
ROCK SPRINGS,  CLOUDY    28  23  81 NE10      30.14R WCI  19

$$




USA.gov is the U.S. government's official web portal to all federal, state and local government web resources and services.